When you browse on this site, cookies collect data to enhance your experience and personalize the content and advertising you see.
Visit our Privacy Policy to learn more. By continuing to use the site, you agree to this use of cookies and data.

Hourly Weather Gyula

Today, 27 September, Sunday

Time Temperature Precipitation Wind Pressure Humidity
00:00 +12°C° 0 mm 3 mps 742 mmHg 67%
01:00 +11°C° 0 mm 3 mps 743 mmHg 68%
02:00 +11°C° 0 mm 3 mps 743 mmHg 69%
03:00 +11°C° 0 mm 3 mps 744 mmHg 71%
04:00 +10°C° 0 mm 3 mps 744 mmHg 72%
05:00 +10°C° 0 mm 3 mps 745 mmHg 70%
06:00 +11°C° 0 mm 4 mps 746 mmHg 68%
07:00 +11°C° 0 mm 4 mps 747 mmHg 67%
08:00 +12°C° 0 mm 4 mps 747 mmHg 61%
09:00 +14°C° 0 mm 4 mps 748 mmHg 54%
10:00 +15°C° 0 mm 4 mps 749 mmHg 48%
11:00 +17°C° 0 mm 4 mps 749 mmHg 46%
12:00 +18°C° 0 mm 3 mps 750 mmHg 43%
13:00 +18°C° 0 mm 3 mps 750 mmHg 40%
14:00 +18°C° 0 mm 3 mps 750 mmHg 42%
15:00 +18°C° 0 mm 3 mps 751 mmHg 43%
16:00 +18°C° 0 mm 3 mps 751 mmHg 44%
17:00 +17°C° 0 mm 2 mps 751 mmHg 49%
18:00 +16°C° 0 mm 2 mps 751 mmHg 55%
19:00 +14°C° 0 mm 2 mps 751 mmHg 60%
20:00 +14°C° 0 mm 2 mps 751 mmHg 62%
21:00 +13°C° 0 mm 3 mps 752 mmHg 64%
22:00 +13°C° 0 mm 4 mps 752 mmHg 66%
23:00 +12°C° 0 mm 4 mps 752 mmHg 66%

Tomorrow, 28 September, Monday

Time Temperature Precipitation Wind Pressure Humidity
00:00 +12°C° 0 mm 4 mps 751 mmHg 66%
01:00 +12°C° 0 mm 4 mps 751 mmHg 66%
02:00 +13°C° 0 mm 4 mps 751 mmHg 64%
03:00 +13°C° 0 mm 4 mps 750 mmHg 62%
04:00 +13°C° 0 mm 4 mps 750 mmHg 60%
05:00 +14°C° 0 mm 3 mps 750 mmHg 58%
06:00 +15°C° 0 mm 2 mps 750 mmHg 57%
07:00 +16°C° 0 mm 1 mps 750 mmHg 56%
08:00 +16°C° 0.2 mm 1 mps 750 mmHg 58%
09:00 +16°C° 0.2 mm 1 mps 750 mmHg 61%
10:00 +16°C° 0.2 mm 1 mps 750 mmHg 63%
11:00 +17°C° 0.1 mm 2 mps 750 mmHg 61%
12:00 +18°C° 0.1 mm 3 mps 750 mmHg 59%
13:00 +19°C° 0.1 mm 4 mps 750 mmHg 57%
14:00 +19°C° 0 mm 4 mps 750 mmHg 56%
15:00 +20°C° 0 mm 3 mps 750 mmHg 54%
16:00 +21°C° 0 mm 3 mps 750 mmHg 53%
17:00 +19°C° 1.1 mm 3 mps 751 mmHg 65%
18:00 +17°C° 1.1 mm 2 mps 751 mmHg 76%
19:00 +16°C° 1.1 mm 2 mps 751 mmHg 88%
20:00 +16°C° 0.3 mm 2 mps 751 mmHg 89%
21:00 +15°C° 0.3 mm 2 mps 751 mmHg 90%
22:00 +14°C° 0.3 mm 3 mps 751 mmHg 91%
23:00 +15°C° 0 mm 2 mps 751 mmHg 91%

Day after tomorrow, 29 September, Tuesday

Time Temperature Precipitation Wind Pressure Humidity
00:00 +14°C° 0 mm 2 mps 751 mmHg 91%
01:00 +14°C° 0 mm 2 mps 751 mmHg 91%
02:00 +14°C° 0 mm 1 mps 751 mmHg 91%
03:00 +14°C° 0 mm 1 mps 751 mmHg 91%
04:00 +12°C° 0 mm 0 mps 751 mmHg 91%
05:00 +13°C° 0 mm 0 mps 751 mmHg 89%
06:00 +14°C° 0 mm 1 mps 751 mmHg 87%
07:00 +15°C° 0 mm 1 mps 751 mmHg 86%
08:00 +16°C° 0.1 mm 1 mps 751 mmHg 80%
09:00 +18°C° 0.1 mm 1 mps 751 mmHg 74%
10:00 +19°C° 0.1 mm 2 mps 751 mmHg 69%
11:00 +19°C° 0.7 mm 2 mps 751 mmHg 64%
12:00 +20°C° 0.7 mm 3 mps 751 mmHg 60%
13:00 +21°C° 0.7 mm 3 mps 751 mmHg 56%
14:00 +20°C° 0.5 mm 3 mps 751 mmHg 57%
15:00 +20°C° 0.5 mm 3 mps 750 mmHg 59%
16:00 +20°C° 0.5 mm 3 mps 750 mmHg 61%
17:00 +19°C° 0.1 mm 3 mps 750 mmHg 64%
18:00 +17°C° 0.1 mm 4 mps 750 mmHg 68%
19:00 +15°C° 0.1 mm 4 mps 751 mmHg 71%
20:00 +15°C° 0 mm 4 mps 751 mmHg 75%
21:00 +14°C° 0 mm 4 mps 751 mmHg 78%
22:00 +13°C° 0 mm 3 mps 751 mmHg 82%
23:00 +13°C° 0 mm 3 mps 751 mmHg 85%

30 September, Wednesday

Time Temperature Precipitation Wind Pressure Humidity
00:00 +12°C° 0 mm 3 mps 750 mmHg 87%
01:00 +12°C° 0 mm 3 mps 750 mmHg 89%
02:00 +12°C° 0 mm 3 mps 750 mmHg 90%
03:00 +11°C° 0 mm 3 mps 750 mmHg 91%
04:00 +11°C° 0 mm 3 mps 750 mmHg 92%
05:00 +11°C° 0 mm 3 mps 750 mmHg 90%
06:00 +12°C° 0 mm 3 mps 750 mmHg 89%
07:00 +12°C° 0 mm 3 mps 749 mmHg 88%
08:00 +13°C° 0 mm 3 mps 749 mmHg 83%
09:00 +14°C° 0 mm 3 mps 749 mmHg 78%
10:00 +15°C° 0 mm 4 mps 749 mmHg 73%
11:00 +17°C° 0 mm 3 mps 748 mmHg 71%
12:00 +17°C° 0 mm 3 mps 748 mmHg 69%
13:00 +17°C° 0 mm 3 mps 747 mmHg 68%
14:00 +17°C° 0.3 mm 3 mps 747 mmHg 71%
15:00 +15°C° 0.3 mm 4 mps 747 mmHg 73%
16:00 +15°C° 0.3 mm 4 mps 746 mmHg 76%
17:00 +14°C° 1.3 mm 4 mps 746 mmHg 80%
18:00 +14°C° 1.3 mm 5 mps 746 mmHg 85%
19:00 +13°C° 1.3 mm 6 mps 746 mmHg 89%
20:00 +13°C° 1.5 mm 6 mps 746 mmHg 89%
21:00 +13°C° 1.5 mm 6 mps 745 mmHg 89%
22:00 +13°C° 1.5 mm 6 mps 745 mmHg 89%
23:00 +13°C° 0.3 mm 5 mps 745 mmHg 89%

1 October, Thursday

Time Temperature Precipitation Wind Pressure Humidity
00:00 +13°C° 0.3 mm 4 mps 745 mmHg 89%
01:00 +13°C° 0.3 mm 4 mps 745 mmHg 89%
02:00 +13°C° 0 mm 3 mps 745 mmHg 90%
03:00 +13°C° 0 mm 3 mps 745 mmHg 90%
04:00 +13°C° 0 mm 3 mps 745 mmHg 90%
05:00 +14°C° 0 mm 2 mps 745 mmHg 90%
06:00 +14°C° 0 mm 2 mps 745 mmHg 89%
07:00 +14°C° 0 mm 2 mps 745 mmHg 88%
08:00 +14°C° 0 mm 2 mps 745 mmHg 86%
09:00 +15°C° 0 mm 2 mps 745 mmHg 85%
10:00 +15°C° 0 mm 2 mps 745 mmHg 84%
11:00 +15°C° 0.1 mm 2 mps 745 mmHg 84%
12:00 +15°C° 0.1 mm 2 mps 745 mmHg 83%
13:00 +16°C° 0.1 mm 2 mps 745 mmHg 83%
14:00 +15°C° 0 mm 2 mps 745 mmHg 84%
15:00 +15°C° 0 mm 1 mps 745 mmHg 85%
16:00 +15°C° 0 mm 1 mps 745 mmHg 86%
17:00 +15°C° 0 mm 1 mps 745 mmHg 88%
18:00 +15°C° 0 mm 1 mps 745 mmHg 90%
19:00 +14°C° 0 mm 1 mps 745 mmHg 91%
20:00 +14°C° 0.1 mm 2 mps 745 mmHg 92%
21:00 +14°C° 0.1 mm 2 mps 745 mmHg 93%
22:00 +14°C° 0.1 mm 2 mps 746 mmHg 93%
23:00 +14°C° 0 mm 2 mps 745 mmHg 93%

2 October, Friday

Time Temperature Precipitation Wind Pressure Humidity
00:00 +13°C° 0 mm 3 mps 745 mmHg 92%
01:00 +13°C° 0 mm 3 mps 745 mmHg 92%
02:00 +13°C° 0 mm 3 mps 745 mmHg 92%
03:00 +12°C° 0 mm 3 mps 745 mmHg 92%
04:00 +12°C° 0 mm 3 mps 745 mmHg 92%
05:00 +12°C° 0 mm 3 mps 745 mmHg 90%
06:00 +13°C° 0 mm 4 mps 745 mmHg 87%
07:00 +13°C° 0 mm 4 mps 745 mmHg 85%
08:00 +14°C° 0.1 mm 4 mps 745 mmHg 81%
09:00 +15°C° 0.1 mm 4 mps 746 mmHg 77%
10:00 +17°C° 0.1 mm 4 mps 746 mmHg 72%
11:00 +17°C° 0.3 mm 3 mps 746 mmHg 73%
12:00 +17°C° 0.3 mm 3 mps 746 mmHg 74%
13:00 +17°C° 0.3 mm 2 mps 746 mmHg 75%
14:00 +16°C° 0.3 mm 2 mps 746 mmHg 78%
15:00 +16°C° 0.3 mm 2 mps 746 mmHg 82%
16:00 +16°C° 0.3 mm 1 mps 746 mmHg 86%
17:00 +16°C° 0.1 mm 2 mps 746 mmHg 84%
18:00 +16°C° 0.1 mm 3 mps 746 mmHg 83%
19:00 +15°C° 0.1 mm 4 mps 746 mmHg 81%
20:00 +15°C° 0 mm 4 mps 746 mmHg 80%
21:00 +17°C° 0 mm 4 mps 746 mmHg 79%
22:00 +17°C° 0 mm 4 mps 746 mmHg 78%
23:00 +17°C° 0 mm 4 mps 746 mmHg 77%
Show more